ZKRXD NZNR-NZFI

Flight info

Callsign ZKRXD
Flight time 0h 24m
Altitude 11998
Route NIXOT H103 RIDLA H201 PM
Aircraft C680/M-SDFGLM3ORVWY/SB1

Departure

Time 2026-05-08 06:25
Airport Hawke's Bay Airport (NZNR)

Arrival

Time 2026-05-08 06:49
Airport Feilding Airport (NZFI)
Time Latitude Longitude Altitude Speed Heading
2026-05-08 06:11 -39.46537 176.87234 11 ft 0 kts 205°
2026-05-08 06:21 -39.46546 176.87217 11 ft 13 kts 264°
2026-05-08 06:22 -39.46605 176.87134 11 ft 13 kts 212°
2026-05-08 06:22 -39.46675 176.87051 11 ft 15 kts 263°
2026-05-08 06:22 -39.46669 176.86927 11 ft 13 kts 273°
2026-05-08 06:22 -39.46664 176.86816 11 ft 12 kts 274°
2026-05-08 06:23 -39.46701 176.86751 11 ft 11 kts 182°
2026-05-08 06:23 -39.46831 176.86735 11 ft 23 kts 184°
2026-05-08 06:23 -39.46988 176.86718 11 ft 23 kts 184°
2026-05-08 06:23 -39.47149 176.86700 11 ft 23 kts 184°
2026-05-08 06:24 -39.47324 176.86680 11 ft 28 kts 184°
2026-05-08 06:24 -39.47536 176.86655 11 ft 31 kts 183°
2026-05-08 06:24 -39.47724 176.86624 11 ft 17 kts 206°
2026-05-08 06:24 -39.47738 176.86643 11 ft 13 kts 336°
2026-05-08 06:25 -39.47511 176.86659 11 ft 67 kts
2026-05-08 06:25 -39.46818 176.86742 92 ft 128 kts
2026-05-08 06:25 -39.45905 176.86854 967 ft 127 kts
2026-05-08 06:25 -39.45020 176.86943 1890 ft 137 kts
2026-05-08 06:26 -39.43923 176.87148 2472 ft 178 kts
2026-05-08 06:26 -39.42636 176.87312 3597 ft 192 kts
2026-05-08 06:26 -39.41325 176.87455 4788 ft 186 kts
2026-05-08 06:26 -39.40188 176.88201 5939 ft 190 kts 44°
2026-05-08 06:27 -39.39728 176.89812 7034 ft 202 kts 85°
2026-05-08 06:27 -39.40089 176.91619 8030 ft 215 kts 110°
2026-05-08 06:27 -39.40838 176.93333 9034 ft 223 kts 119°
2026-05-08 06:27 -39.41732 176.95002 10057 ft 229 kts 122°
2026-05-08 06:28 -39.42686 176.96680 11070 ft 234 kts 123°
2026-05-08 06:28 -39.43679 176.98412 11881 ft 253 kts 123°
2026-05-08 06:28 -39.44813 177.00424 12004 ft 299 kts 123°
2026-05-08 06:28 -39.46096 177.02710 12015 ft 328 kts 124°
2026-05-08 06:29 -39.47634 177.04908 12007 ft 331 kts 135°
2026-05-08 06:29 -39.49515 177.06600 12000 ft 332 kts 158°
2026-05-08 06:29 -39.51765 177.07108 12003 ft 327 kts 185°
2026-05-08 06:29 -39.53978 177.06553 12004 ft 322 kts 203°
2026-05-08 06:30 -39.55824 177.05045 11999 ft 310 kts 231°
2026-05-08 06:30 -39.57195 177.02907 11996 ft 308 kts 235°
2026-05-08 06:30 -39.58488 177.00699 11998 ft 307 kts 239°
2026-05-08 06:30 -39.59774 176.98485 11996 ft 308 kts 237°
2026-05-08 06:31 -39.61107 176.96302 11995 ft 309 kts 236°
2026-05-08 06:31 -39.62458 176.94135 11994 ft 309 kts 236°
2026-05-08 06:31 -39.63816 176.91975 11993 ft 309 kts 236°
2026-05-08 06:31 -39.65195 176.89828 11992 ft 310 kts 235°
2026-05-08 06:32 -39.66568 176.87714 11990 ft 310 kts 235°
2026-05-08 06:32 -39.67962 176.85577 11988 ft 310 kts 235°
2026-05-08 06:32 -39.69361 176.83435 11987 ft 310 kts 235°
2026-05-08 06:32 -39.70739 176.81288 11988 ft 310 kts 234°
2026-05-08 06:33 -39.72186 176.79204 11987 ft 311 kts 232°
2026-05-08 06:33 -39.73646 176.77127 11985 ft 311 kts 233°
2026-05-08 06:33 -39.75073 176.75017 11984 ft 310 kts 234°
2026-05-08 06:33 -39.76449 176.72865 11981 ft 309 kts 236°
2026-05-08 06:34 -39.77783 176.70672 11981 ft 309 kts 237°
2026-05-08 06:34 -39.79078 176.68453 11980 ft 308 kts 238°
2026-05-08 06:34 -39.80330 176.66229 11978 ft 308 kts 239°
2026-05-08 06:34 -39.81586 176.63932 11978 ft 307 kts 240°
2026-05-08 06:35 -39.82811 176.61650 11977 ft 308 kts 240°
2026-05-08 06:35 -39.84016 176.59383 11975 ft 308 kts 240°
2026-05-08 06:35 -39.85225 176.57089 11974 ft 307 kts 241°
2026-05-08 06:35 -39.86427 176.54789 11974 ft 307 kts 241°
2026-05-08 06:36 -39.87624 176.52474 11972 ft 307 kts 242°
2026-05-08 06:36 -39.88810 176.50158 11972 ft 307 kts 242°
2026-05-08 06:36 -39.89996 176.47841 11970 ft 307 kts 242°
2026-05-08 06:36 -39.91185 176.45518 11968 ft 307 kts 242°
2026-05-08 06:37 -39.92370 176.43201 11966 ft 307 kts 242°
2026-05-08 06:37 -39.93543 176.40910 11967 ft 307 kts 242°
2026-05-08 06:37 -39.94725 176.38584 11965 ft 308 kts 242°
2026-05-08 06:37 -39.95914 176.36262 11962 ft 308 kts 241°
2026-05-08 06:38 -39.97112 176.33940 11964 ft 308 kts 242°
2026-05-08 06:38 -39.98292 176.31614 11964 ft 307 kts 242°
2026-05-08 06:38 -39.99458 176.29289 11964 ft 307 kts 242°
2026-05-08 06:38 -40.00628 176.26950 11960 ft 307 kts 242°
2026-05-08 06:39 -40.01796 176.24616 11960 ft 307 kts 242°
2026-05-08 06:39 -40.02970 176.22282 11959 ft 307 kts 242°
2026-05-08 06:39 -40.04143 176.19946 11958 ft 307 kts 242°
2026-05-08 06:39 -40.05310 176.17610 11957 ft 307 kts 242°
2026-05-08 06:40 -40.06475 176.15275 11961 ft 307 kts 242°
2026-05-08 06:40 -40.07643 176.12937 11955 ft 307 kts 242°
2026-05-08 06:40 -40.08818 176.10601 11955 ft 308 kts 242°
2026-05-08 06:40 -40.09996 176.08269 11954 ft 307 kts 242°
2026-05-08 06:41 -40.11149 176.05968 11949 ft 293 kts 242°
2026-05-08 06:41 -40.12219 176.03838 11945 ft 275 kts 243°
2026-05-08 06:41 -40.13251 176.01777 11944 ft 260 kts 243°
2026-05-08 06:41 -40.14216 175.99843 11945 ft 249 kts 243°
2026-05-08 06:42 -40.15167 175.97920 11951 ft 253 kts 243°
2026-05-08 06:42 -40.16126 175.95970 11951 ft 256 kts 243°
2026-05-08 06:42 -40.17094 175.93995 11952 ft 259 kts 243°
2026-05-08 06:42 -40.18075 175.92010 11947 ft 262 kts 243°
2026-05-08 06:43 -40.19072 175.89992 11522 ft 279 kts 243°
2026-05-08 06:43 -40.20143 175.87817 10624 ft 286 kts 242°
2026-05-08 06:43 -40.21229 175.85635 9725 ft 287 kts 242°
2026-05-08 06:43 -40.22376 175.83479 8829 ft 289 kts 238°
2026-05-08 06:44 -40.23451 175.81266 7929 ft 288 kts 241°
2026-05-08 06:44 -40.24625 175.79132 7040 ft 288 kts 238°
2026-05-08 06:44 -40.25736 175.76998 6159 ft 288 kts 239°
2026-05-08 06:44 -40.26817 175.74757 5260 ft 286 kts 239°
2026-05-08 06:45 -40.27839 175.72538 4357 ft 283 kts 245°
2026-05-08 06:45 -40.28657 175.70237 3545 ft 273 kts 258°
2026-05-08 06:45 -40.28498 175.67926 2880 ft 246 kts 303°
2026-05-08 06:45 -40.27315 175.66570 2639 ft 206 kts 318°
2026-05-08 06:46 -40.26323 175.65336 2227 ft 195 kts 318°
2026-05-08 06:46 -40.25383 175.64087 1896 ft 185 kts 313°
2026-05-08 06:46 -40.24578 175.62812 1839 ft 184 kts 309°
2026-05-08 06:46 -40.24083 175.61278 1798 ft 188 kts 276°
2026-05-08 06:47 -40.24309 175.59603 1588 ft 182 kts 248°
2026-05-08 06:47 -40.25138 175.58538 1589 ft 163 kts 206°
2026-05-08 06:47 -40.26271 175.58401 1495 ft 166 kts 163°
2026-05-08 06:47 -40.27189 175.59166 1207 ft 152 kts 136°
2026-05-08 06:48 -40.27855 175.60088 1040 ft 130 kts 117°
2026-05-08 06:48 -40.27938 175.61205 941 ft 129 kts 67°
2026-05-08 06:48 -40.27517 175.62171 836 ft 118 kts 36°
2026-05-08 06:48 -40.26814 175.62545 731 ft 104 kts 359°
2026-05-08 06:49 -40.26222 175.62014 505 ft 112 kts 306°
2026-05-08 06:49 -40.25809 175.61102 260 ft 115 kts 302°
2026-05-08 06:49 -40.25509 175.60406 218 ft 45 kts 297°
2026-05-08 06:49 -40.25408 175.60173 218 ft 20 kts 297°
2026-05-08 06:50 -40.25352 175.60117 218 ft 6 kts 12°
2026-05-08 06:50 -40.25307 175.60144 218 ft 7 kts 358°
2026-05-08 06:50 -40.25301 175.60142 218 ft 0 kts 317°